[[{"header":{"parameterUnit":"m.s-1","parameterCategory":1,"la1":30.2992,"la2":30.254,"lo1":-89.0895,"lo2":-89.0443,"dy":0.0025,"dx":0.0025,"nx":19,"ny":19,"refTime":"2026-05-02T09:00:00:Z","depth":0,"parameterNumber":2,"parameterNumberName":"U-component_of_WINDS"},"data":[0,0,0,-0.8833,-0.8837,-0.9027,-0.9028,-0.9282,-0.9285,0,0,0,0,0,0,0,0,0,0,0,-0.8782,-0.8784,-0.8833,-0.8837,-0.9027,-0.9028,-0.9282,-0.9285,0,0,0,0,0,0,0,0,0,0,0,-0.8781,-0.8783,-0.8786,-0.8838,-0.9027,-0.9028,-0.9281,-0.9134,0,0,0,0,0,0,0,0,0,0,-0.8948,-0.8906,-0.8783,-0.8786,-0.8839,-0.9027,-0.9028,-0.9127,-0.9144,-0.9201,0,-0.9251,0,-0.9272,-0.9302,-0.9303,0,0,0,-0.8834,-0.8892,-0.8938,-0.8786,-0.8841,-0.9027,-0.8941,-0.9136,-0.9155,-0.9222,-0.9255,-0.9264,-0.9276,-0.9304,-0.9305,-0.9643,-0.9644,0,0,-0.8824,-0.882,-0.8925,-0.8951,-0.892,-0.8935,-0.8947,-0.9147,-0.9183,-0.9256,-0.927,-0.928,-0.9306,-0.9308,-0.9641,-0.9643,0,0,0,-0.8796,-0.8812,-0.8853,-0.894,-0.8974,-0.894,-0.8954,-0.9174,-0.9188,-0.9272,-0.9283,-0.9307,-0.9311,-0.9639,-0.9642,-0.9726,0,0,0,-0.8789,-0.8796,-0.8849,-0.8848,-0.897,-0.9076,-0.8977,-0.9174,-0.9197,-0.9282,-0.9307,-0.9313,-0.9637,-0.9641,-0.972,-0.9769,0,0,0,-0.8768,-0.8793,-0.8822,-0.8848,-0.8929,-0.9073,-0.9098,-0.9179,-0.9204,-0.9304,-0.9314,-0.9636,-0.964,-0.9714,-0.9759,-0.9859,0,0,0,-0.8744,-0.8894,-0.8824,-0.8995,-0.8928,-0.9122,-0.9097,-0.9242,-0.9337,-0.9309,-0.9638,-0.9642,-0.9712,-0.9753,-0.9853,-0.9945,-0.9982,0,0,-0.8932,-0.8917,-0.9018,-0.896,-0.9166,-0.9093,-0.9312,-0.9403,-0.9416,-0.9567,-0.9575,-0.9722,-0.9758,-0.9858,-1.0183,-1.0212,0,0,0,-0.9076,-0.915,-0.9205,-0.9295,-0.9367,-0.9434,-0.9492,-0.9525,-0.9653,-0.9492,-0.9783,-0.9804,-0.9863,-0.9908,-0.9933,-0.9985,-0.9661,-0.966,-0.966,-0.934,-0.9347,-0.9516,-0.9547,-0.9634,-0.9691,-0.9764,-0.982,-0.9802,-0.987,-0.9917,-1.0113,-1.0165,-1.0184,-1.0238,-0.9962,-0.9962,-0.9963,-0.9963,-0.9619,-0.9726,-0.9696,-0.9851,-0.9858,-0.9988,-1.0048,-1.0031,-1.0155,-1.0078,-1.013,-1.005,-1.0216,-1.0264,-0.9969,-0.9968,-0.9967,-0.9967,-0.9966,-0.9796,-0.9849,-0.9886,-1.0017,-1.0117,-1.0141,-1.0262,-1.0263,-1.0265,-1.0316,-1.0367,-1.0366,-1.0369,-1.0339,-1.034,-1.034,-1.0341,-1.0341,-1.0342,-0.9968,-1.0007,-1.0107,-1.0195,-1.0254,-1.033,-1.0388,-1.0446,-1.051,-1.0502,-1.0503,-1.0481,-1.0228,-1.0168,-1.0353,-1.0351,-1.0349,-1.0348,-1.0348,-1.0258,-1.0192,-1.0348,-1.0406,-1.051,-1.0611,-1.0608,-1.0726,-1.0773,-1.0833,-1.0798,-1.0609,-1.0596,-1.0576,-1.0526,-1.0793,-1.0793,-1.0793,-1.0793,-1.0412,-1.0402,-1.0563,-1.0656,-1.0747,-1.0761,-1.0939,-1.0984,-1.1021,-1.1052,-1.1011,-1.0943,-1.0923,-1.0922,-1.0894,-1.0848,-1.1191,-1.1192,-1.1192,-1.0592,-1.0592,-1.0744,-1.0777,-1.0858,-1.0928,-1.1096,-1.1206,-1.1233,-1.1208,-1.1076,-1.106,-1.095,-1.0913,-1.0891,-1.0848,-1.0764,0,0]},{"header":{"parameterUnit":"m.s-1","parameterCategory":1,"la1":30.2992,"la2":30.254,"lo1":-89.0895,"lo2":-89.0443,"dy":0.0025,"dx":0.0025,"nx":19,"ny":19,"refTime":"2026-05-02T09:00:00:Z","depth":0,"parameterNumber":3,"parameterNumberName":"V-component_of_WINDS"},"data":[0,0,0,-5.6783,-5.679,-5.7113,-5.7114,-5.7543,-5.7546,0,0,0,0,0,0,0,0,0,0,0,-5.6698,-5.6701,-5.6782,-5.6791,-5.7113,-5.7114,-5.7542,-5.7546,0,0,0,0,0,0,0,0,0,0,0,-5.6697,-5.6701,-5.6705,-5.6792,-5.7113,-5.7114,-5.7541,-5.7291,0,0,0,0,0,0,0,0,0,0,-5.6975,-5.6908,-5.67,-5.6705,-5.6794,-5.7112,-5.7114,-5.7279,-5.7307,-5.7403,0,-5.7493,0,-5.7527,-5.7576,-5.7578,0,0,0,-5.6782,-5.6885,-5.6962,-5.6705,-5.6797,-5.7112,-5.6965,-5.7295,-5.7326,-5.744,-5.7499,-5.7515,-5.7534,-5.7579,-5.7581,-5.8168,-5.8171,0,0,-5.6764,-5.6762,-5.6941,-5.6983,-5.6936,-5.6955,-5.6975,-5.7313,-5.7377,-5.7501,-5.7524,-5.7541,-5.7582,-5.7585,-5.8165,-5.8169,0,0,0,-5.6719,-5.675,-5.6818,-5.6966,-5.7023,-5.6964,-5.6988,-5.7362,-5.7384,-5.7529,-5.7546,-5.7585,-5.759,-5.8162,-5.8166,-5.8321,0,0,0,-5.6708,-5.6723,-5.6811,-5.6813,-5.7017,-5.7197,-5.7029,-5.7361,-5.7399,-5.7544,-5.7585,-5.7594,-5.8158,-5.8164,-5.8309,-5.8395,0,0,0,-5.6673,-5.6719,-5.677,-5.6812,-5.6951,-5.7191,-5.7233,-5.7369,-5.741,-5.7578,-5.7596,-5.8156,-5.8163,-5.8299,-5.8378,-5.855,0,0,0,-5.6636,-5.6901,-5.6772,-5.7075,-5.6948,-5.7284,-5.7231,-5.7481,-5.7643,-5.7587,-5.8159,-5.8166,-5.8296,-5.8367,-5.8539,-5.8696,-5.8761,0,0,-5.697,-5.6942,-5.712,-5.7014,-5.7373,-5.7235,-5.7616,-5.7766,-5.7783,-5.8038,-5.8053,-5.8313,-5.8377,-5.8548,-5.9121,-5.9172,0,0,0,-5.7225,-5.7354,-5.7449,-5.7604,-5.7725,-5.7836,-5.7928,-5.7984,-5.82,-5.7915,-5.842,-5.8458,-5.8559,-5.8634,-5.8678,-5.8765,-5.82,-5.8199,-5.8198,-5.7696,-5.7704,-5.8,-5.8047,-5.8198,-5.8289,-5.8412,-5.8502,-5.8466,-5.8585,-5.8662,-5.9009,-5.9097,-5.913,-5.922,-5.8743,-5.8744,-5.8744,-5.8745,-5.8188,-5.8372,-5.8316,-5.8584,-5.859,-5.8815,-5.8912,-5.8879,-5.9088,-5.8951,-5.904,-5.8892,-5.9186,-5.9265,-5.8756,-5.8754,-5.8753,-5.8752,-5.8751,-5.8499,-5.8589,-5.8652,-5.8876,-5.9047,-5.9084,-5.9288,-5.9286,-5.9285,-5.9372,-5.9454,-5.9451,-5.945,-5.9411,-5.9412,-5.9413,-5.9414,-5.9415,-5.9416,-5.8799,-5.8865,-5.9038,-5.9188,-5.9287,-5.9416,-5.9509,-5.9606,-5.9713,-5.9695,-5.9696,-5.9648,-5.9212,-5.9104,-5.9435,-5.9431,-5.9429,-5.9427,-5.9426,-5.93,-5.9186,-5.9453,-5.9552,-5.9728,-5.9899,-5.9891,-6.0089,-6.0168,-6.0269,-6.0201,-5.9879,-5.985,-5.9815,-5.9726,-6.0197,-6.0197,-6.0198,-6.0198,-5.9565,-5.9549,-5.9822,-5.998,-6.0135,-6.0155,-6.0457,-6.0531,-6.0589,-6.0639,-6.0569,-6.0449,-6.0414,-6.0406,-6.0358,-6.0275,-6.0876,-6.0877,-6.0878,-5.9874,-5.9873,-6.0131,-6.0187,-6.0324,-6.0441,-6.0724,-6.0908,-6.0949,-6.0905,-6.0678,-6.0649,-6.0455,-6.0392,-6.0346,-6.0272,-6.0119,0,0]}]]